Zapata, TX

11:52 PM CST on February 10, 2016 (GMT -0600)
Zapata

Weather History for KAPY - May, 2012

Change the Weather History Date:

Tuesday, May 15, 2012

  Actual Average (KLRD) Record (KLRD)
Temperature  
Mean Temperature 74 °F 82 °F  
Max Temperature 84 °F 93 °F 108 °F (1960)
Min Temperature 64 °F 71 °F 52 °F (1976)
Degree Days  
Heating Degree Days 0 0  
Month to date heating degree days 0  
Since 1 July heating degree days 926  
Cooling Degree Days 9 17  
Month to date cooling degree days 238  
Year to date cooling degree days 838  
Growing Degree Days 24 (Base 50)    
Moisture  
Dew Point 64 °F    
Average Humidity 74    
Maximum Humidity 100    
Minimum Humidity 44    
Precipitation  
Precipitation 0.64 in 0.08 in 4.43 in (2006)
Month to date precipitation 1.19  
Year to date precipitation 5.57  
Sea Level Pressure  
Sea Level Pressure 30.02 in    
Wind  
Wind Speed 9 mph (NNW)    
Max Wind Speed 26 mph    
Max Gust Speed 37 mph    
Visibility 10 miles    
Events Rain , Thunderstorm    
T = Trace of Precipitation, MM = Missing Value Source: NWS Daily Summary

Daily Weather History Graph

Daily Weather History Graph

Search for Another Location

Airport or City:

Trip Planner

Search our weather history database for the weather conditions in past years. The results will help you decide how hot, cold, wet, or windy it might be!

Date:

Astronomy

May. 15, 2012 Rise Set
Actual Time 6:48 AM CDT 8:18 PM CDT
Civil Twilight 6:23 AM CDT 8:43 PM CDT
Nautical Twilight 5:53 AM CDT 9:13 PM CDT
Astronomical Twilight 5:22 AM CDT 9:45 PM CDT
Moon 3:26 AM CDT (5/15) 4:00 PM CDT (5/15)
Length of Visible Light 14h 19m
Length of Day
13h 29m
Waning Crescent, 23% of the Moon is Illuminated
May 15
Waning Crescent
May 20
New
May 28
First Quarter
Jun 4
Full
Jun 11
Last Quarter

Hourly Weather History & Observations

Time (CDT) Temp. Heat Index Dew Point Humidity Pressure Visibility Wind Dir Wind Speed Gust Speed Precip Events Conditions
12:15 AM 75.2 °F - 63.5 °F 67% 30.03 in 10.0 mi SSE 3.5 mph - N/A Rain , Thunderstorm Light Thunderstorms and Rain
12:35 AM 71.4 °F - 64.9 °F 80% 30.10 in 10.0 mi West 16.1 mph 31.1 mph 0.01 in Rain , Thunderstorm Rain
12:55 AM 65.7 °F - 64.4 °F 96% 30.11 in 2.0 mi WNW 18.4 mph 32.2 mph 0.33 in Rain , Thunderstorm Heavy Thunderstorms and Rain
1:15 AM 65.3 °F - 64.9 °F 99% 30.08 in 7.0 mi North 8.1 mph - 0.08 in Rain , Thunderstorm Thunderstorms and Rain
1:35 AM 65.5 °F - 65.1 °F 99% 30.08 in 5.0 mi NNE 3.5 mph - 0.14 in Rain , Thunderstorm Heavy Thunderstorms and Rain
1:55 AM 65.3 °F - 65.3 °F 100% 30.06 in 5.0 mi ENE 3.5 mph - 0.21 in Rain , Thunderstorm Thunderstorms and Rain
2:15 AM 65.3 °F - 65.3 °F 100% 30.02 in 10.0 mi ESE 12.7 mph - 0.05 in Rain , Thunderstorm Rain
2:35 AM 65.3 °F - 65.3 °F 100% 29.89 in 10.0 mi East 26.5 mph 32.2 mph 0.10 in Rain , Thunderstorm Light Thunderstorms and Rain
2:55 AM 65.7 °F - 65.3 °F 99% 29.86 in 10.0 mi East 20.7 mph 36.8 mph 0.10 in   Scattered Clouds
3:15 AM 67.3 °F - 63.1 °F 87% 29.98 in 10.0 mi West 17.3 mph 29.9 mph N/A   Mostly Cloudy
3:35 AM 66.7 °F - 63.0 °F 88% 29.98 in 10.0 mi West 10.4 mph - N/A   Overcast
3:55 AM 66.4 °F - 63.3 °F 90% 29.99 in 10.0 mi West 10.4 mph - N/A   Scattered Clouds
4:15 AM 65.8 °F - 63.7 °F 93% 30.00 in 10.0 mi West 8.1 mph - N/A   Clear
4:35 AM 65.3 °F - 64.6 °F 98% 30.01 in 10.0 mi WNW 9.2 mph - N/A   Clear
4:55 AM 65.3 °F - 64.4 °F 97% 30.00 in 10.0 mi West 8.1 mph - N/A   Clear
5:15 AM 64.9 °F - 64.4 °F 98% 30.00 in 10.0 mi West 5.8 mph - N/A   Clear
5:35 AM 64.8 °F - 64.2 °F 98% 30.00 in 10.0 mi WSW 4.6 mph - N/A   Clear
6:15 AM 64.6 °F - 64.0 °F 98% 30.01 in 10.0 mi WNW 4.6 mph - N/A   Clear
6:35 AM 64.4 °F - 63.9 °F 98% 30.01 in 10.0 mi West 3.5 mph - N/A   Clear
6:55 AM 64.4 °F - 63.7 °F 98% 30.01 in 10.0 mi West 3.5 mph - N/A   Mostly Cloudy
7:15 AM 64.6 °F - 64.0 °F 98% 30.02 in 10.0 mi West 5.8 mph - N/A   Overcast
7:35 AM 65.5 °F - 63.7 °F 94% 30.03 in 10.0 mi West 5.8 mph - N/A   Scattered Clouds
7:55 AM 66.4 °F - 63.5 °F 90% 30.03 in 10.0 mi West 4.6 mph - N/A   Clear
8:15 AM 67.5 °F - 63.9 °F 88% 30.03 in 10.0 mi WNW 5.8 mph - N/A   Clear
8:35 AM 68.5 °F - 63.9 °F 85% 30.03 in 10.0 mi NW 4.6 mph - N/A   Clear
8:55 AM 70.2 °F - 63.7 °F 80% 30.03 in 10.0 mi NW 9.2 mph - N/A   Clear
9:15 AM 71.1 °F - 63.9 °F 78% 30.03 in 10.0 mi NNW 11.5 mph - N/A   Clear
9:35 AM 72.1 °F - 64.2 °F 76% 30.03 in 10.0 mi NW 8.1 mph - N/A   Clear
9:55 AM 72.7 °F - 63.5 °F 73% 30.04 in 10.0 mi NW 10.4 mph - N/A   Scattered Clouds
10:15 AM 72.7 °F - 63.5 °F 73% 30.05 in 10.0 mi WNW 8.1 mph - N/A   Mostly Cloudy
10:35 AM 74.1 °F - 63.7 °F 70% 30.06 in 10.0 mi WNW 6.9 mph - N/A   Overcast
10:55 AM 73.8 °F - 63.5 °F 70% 30.06 in 10.0 mi WNW 9.2 mph - N/A   Overcast
11:15 AM 74.3 °F - 63.9 °F 70% 30.06 in 10.0 mi West 4.6 mph - N/A   Overcast
11:35 AM 75.0 °F - 63.9 °F 68% 30.06 in 10.0 mi NNW 6.9 mph - N/A   Overcast
11:55 AM 75.6 °F - 64.4 °F 68% 30.06 in 10.0 mi NNW 9.2 mph - N/A   Overcast
12:15 PM 75.6 °F - 64.0 °F 67% 30.05 in 10.0 mi North 10.4 mph - N/A   Mostly Cloudy
12:35 PM 77.2 °F - 63.9 °F 63% 30.04 in 10.0 mi NNW 11.5 mph 19.6 mph N/A   Scattered Clouds
12:55 PM 78.1 °F - 64.0 °F 62% 30.04 in 10.0 mi NNW 10.4 mph - N/A   Scattered Clouds
1:15 PM 79.2 °F - 64.0 °F 60% 30.03 in 10.0 mi NW 11.5 mph - N/A   Scattered Clouds
1:35 PM 78.4 °F - 63.3 °F 60% 30.03 in 10.0 mi NNW 12.7 mph - N/A   Overcast
2:15 PM 79.7 °F - 63.0 °F 56% 30.02 in 10.0 mi NW 4.6 mph - N/A   Scattered Clouds
2:35 PM 79.7 °F - 63.3 °F 57% 30.01 in 10.0 mi NNW 6.9 mph - N/A   Mostly Cloudy
2:55 PM 82.2 °F 83.3 °F 63.1 °F 52% 30.01 in 10.0 mi NNW 8.1 mph - N/A   Mostly Cloudy
3:15 PM 81.7 °F 82.7 °F 62.6 °F 52% 30.00 in 10.0 mi NNW 8.1 mph - N/A   Scattered Clouds
3:35 PM 82.4 °F 83.2 °F 62.2 °F 50% 29.99 in 10.0 mi NNW 6.9 mph - N/A   Mostly Cloudy
3:55 PM 82.2 °F 83.2 °F 62.4 °F 51% 29.99 in 10.0 mi NW 9.2 mph 18.4 mph N/A   Scattered Clouds
4:15 PM 82.2 °F 83.0 °F 62.1 °F 50% 29.98 in 10.0 mi NW 11.5 mph 16.1 mph N/A   Mostly Cloudy
4:35 PM 81.7 °F 82.6 °F 62.1 °F 51% 29.98 in 10.0 mi North 8.1 mph - N/A   Scattered Clouds
4:55 PM 83.3 °F 83.5 °F 60.6 °F 46% 29.97 in 10.0 mi WNW 10.4 mph - N/A   Scattered Clouds
5:15 PM 83.5 °F 83.4 °F 59.7 °F 44% 29.97 in 10.0 mi NW 10.4 mph 17.3 mph N/A   Scattered Clouds
5:35 PM 84.0 °F 84.2 °F 60.8 °F 45% 29.97 in 10.0 mi NNW 6.9 mph - N/A   Mostly Cloudy
5:55 PM 83.5 °F 83.6 °F 60.1 °F 45% 29.96 in 10.0 mi NNW 12.7 mph 19.6 mph N/A   Mostly Cloudy
6:15 PM 80.8 °F 82.2 °F 63.7 °F 56% 29.97 in 10.0 mi North 12.7 mph 19.6 mph N/A   Scattered Clouds
6:35 PM 79.7 °F - 62.6 °F 56% 29.97 in 10.0 mi NNE 11.5 mph 17.3 mph N/A   Scattered Clouds
6:55 PM 80.2 °F 81.8 °F 63.5 °F 57% 29.97 in 10.0 mi NNE 8.1 mph 16.1 mph N/A   Scattered Clouds
7:15 PM 79.7 °F - 62.2 °F 55% 29.98 in 10.0 mi NNE 10.4 mph 16.1 mph N/A   Scattered Clouds
7:35 PM 79.0 °F - 62.1 °F 56% 29.99 in 10.0 mi North 8.1 mph - N/A   Clear
7:55 PM 78.4 °F - 62.1 °F 57% 29.99 in 10.0 mi North 5.8 mph - N/A   Scattered Clouds
8:15 PM 77.5 °F - 62.6 °F 60% 30.00 in 10.0 mi North 4.6 mph - N/A   Scattered Clouds
8:35 PM 76.5 °F - 61.9 °F 61% 30.01 in 10.0 mi North 5.8 mph - N/A   Scattered Clouds
8:55 PM 75.4 °F - 62.4 °F 64% 30.02 in 10.0 mi NNE 4.6 mph - N/A   Clear
9:15 PM 74.5 °F - 62.6 °F 66% 30.02 in 10.0 mi NNE 3.5 mph - N/A   Scattered Clouds
9:35 PM 73.4 °F - 62.8 °F 69% 30.03 in 10.0 mi NNE 3.5 mph - N/A   Scattered Clouds
9:55 PM 73.4 °F - 62.8 °F 69% 30.04 in 10.0 mi NE 3.5 mph - N/A   Clear
10:15 PM 72.5 °F - 63.0 °F 72% 30.05 in 10.0 mi Calm Calm - N/A   Clear
10:35 PM 70.5 °F - 65.1 °F 83% 30.06 in 10.0 mi Calm Calm - N/A   Clear
10:55 PM 69.8 °F - 66.6 °F 89% 30.06 in 10.0 mi Calm Calm - N/A   Clear
11:15 PM 69.1 °F - 65.5 °F 88% 30.07 in 10.0 mi Calm Calm - N/A   Scattered Clouds
11:35 PM 69.8 °F - 64.9 °F 84% 30.08 in 10.0 mi Calm Calm - N/A   Scattered Clouds
11:55 PM 69.4 °F - 65.3 °F 87% 30.08 in 10.0 mi ENE 3.5 mph - N/A   Clear